[[{"header":{"parameterUnit":"m.s-1","parameterCategory":2,"la1":30.2992,"la2":30.254,"lo1":-89.0895,"lo2":-89.0443,"dy":0.0025,"dx":0.0025,"nx":19,"ny":19,"refTime":"2026-03-17T03:00:00:Z","depth":"0","parameterNumber":2,"parameterNumberName":"U-component_of_CURRENTS"},"data":[0,0,0,-0.2064,-0.2063,-0.1971,-0.197,-0.1971,-0.1971,0,0,0,0,0,0,0,0,0,0,0,-0.2116,-0.2116,-0.2065,-0.2062,-0.1971,-0.197,-0.1971,-0.1971,0,0,0,0,0,0,0,0,0,0,0,-0.2116,-0.2116,-0.2116,-0.2062,-0.1971,-0.197,-0.1971,-0.201,0,0,0,0,0,0,0,0,0,0,-0.2085,-0.2094,-0.2116,-0.2116,-0.2061,-0.1971,-0.197,-0.2011,-0.2008,-0.2047,0,-0.2044,0,-0.2003,-0.1974,-0.1974,0,0,0,-0.2061,-0.2096,-0.2091,-0.2116,-0.2061,-0.1971,-0.2012,-0.2008,-0.2005,-0.2043,-0.2043,-0.2042,-0.2003,-0.1974,-0.1975,-0.2049,-0.205,0,0,-0.2066,-0.208,-0.2093,-0.2089,-0.2055,-0.2015,-0.2009,-0.2005,-0.2002,-0.2043,-0.2041,-0.2003,-0.1975,-0.1975,-0.2049,-0.205,0,0,0,-0.2082,-0.2083,-0.2075,-0.2091,-0.2062,-0.2012,-0.2005,-0.2001,-0.2004,-0.204,-0.2003,-0.1975,-0.1975,-0.2048,-0.2049,-0.2053,0,0,0,-0.2085,-0.2092,-0.2078,-0.2081,-0.2062,-0.2007,-0.2002,-0.2005,-0.2002,-0.2003,-0.1975,-0.1976,-0.2048,-0.2049,-0.2052,-0.2066,0,0,0,-0.2117,-0.2094,-0.2093,-0.2083,-0.2042,-0.2006,-0.2007,-0.2002,-0.198,-0.1974,-0.1976,-0.2047,-0.2049,-0.2051,-0.2064,-0.2105,0,0,0,-0.212,-0.2066,-0.2094,-0.2034,-0.2044,-0.2013,-0.2006,-0.1971,-0.1964,-0.1975,-0.2048,-0.2049,-0.205,-0.2062,-0.2103,-0.2081,-0.2088,0,0,-0.204,-0.2057,-0.2023,-0.2045,-0.2008,-0.2024,-0.2015,-0.1998,-0.2003,-0.2056,-0.2056,-0.2052,-0.2063,-0.2105,-0.2151,-0.2154,0,0,0,-0.1989,-0.1973,-0.1966,-0.1958,-0.1967,-0.2011,-0.2,-0.2018,-0.2041,-0.2004,-0.2076,-0.2084,-0.2109,-0.2093,-0.2096,-0.2042,-0.2055,-0.2054,-0.2054,-0.1878,-0.1905,-0.1881,-0.1928,-0.1946,-0.2001,-0.2036,-0.2076,-0.2066,-0.2086,-0.2103,-0.2162,-0.2145,-0.2147,-0.2091,-0.2117,-0.2117,-0.2117,-0.2117,-0.1789,-0.1781,-0.1865,-0.185,-0.1954,-0.1981,-0.2086,-0.2099,-0.2168,-0.2142,-0.2166,-0.2118,-0.2151,-0.209,-0.2117,-0.2117,-0.2117,-0.2117,-0.2117,-0.1722,-0.1729,-0.1751,-0.1806,-0.188,-0.1973,-0.2068,-0.2133,-0.2175,-0.2208,-0.22,-0.22,-0.2133,-0.2214,-0.2215,-0.2215,-0.2215,-0.2215,-0.2215,-0.1647,-0.1679,-0.1686,-0.1757,-0.1798,-0.1895,-0.2053,-0.2126,-0.2207,-0.2223,-0.2223,-0.2151,-0.2192,-0.2173,-0.2219,-0.2219,-0.2218,-0.2218,-0.2217,-0.1538,-0.1578,-0.1584,-0.1617,-0.1731,-0.1801,-0.1979,-0.2134,-0.2225,-0.2254,-0.2183,-0.2241,-0.2245,-0.2241,-0.2225,-0.2282,-0.2282,-0.2282,-0.2282,-0.147,-0.149,-0.1501,-0.1541,-0.163,-0.1754,-0.1864,-0.2025,-0.2142,-0.2147,-0.2179,-0.2128,-0.2128,-0.2122,-0.2121,-0.2101,-0.2125,-0.2125,-0.2125,-0.1412,-0.1432,-0.1411,-0.147,-0.1568,-0.1686,-0.1749,-0.1885,-0.2044,-0.2113,-0.211,-0.2116,-0.2035,-0.2039,-0.2023,-0.2026,-0.1991,0,0]},{"header":{"parameterUnit":"m.s-1","parameterCategory":2,"la1":30.2992,"la2":30.254,"lo1":-89.0895,"lo2":-89.0443,"dy":0.0025,"dx":0.0025,"nx":19,"ny":19,"refTime":"2026-03-17T03:00:00:Z","depth":"0","parameterNumber":3,"parameterNumberName":"V-component_of_CURRENTS"},"data":[0,0,0,-0.0454,-0.0447,-0.0137,-0.0136,0.0031,0.0032,0,0,0,0,0,0,0,0,0,0,0,-0.0582,-0.058,-0.0455,-0.0446,-0.0137,-0.0136,0.0031,0.0032,0,0,0,0,0,0,0,0,0,0,0,-0.0583,-0.0581,-0.0578,-0.0445,-0.0137,-0.0136,0.0031,-0.0147,0,0,0,0,0,0,0,0,0,0,-0.042,-0.0505,-0.0581,-0.0578,-0.0443,-0.0138,-0.0136,-0.0153,-0.0136,-0.0173,0,-0.0122,0,-0.0033,0.0039,0.0039,0,0,0,-0.0452,-0.0519,-0.0429,-0.0578,-0.0441,-0.0138,-0.0278,-0.0142,-0.0123,-0.0151,-0.0119,-0.011,-0.0031,0.0039,0.004,0.0072,0.0071,0,0,-0.0469,-0.0534,-0.0442,-0.0417,-0.0361,-0.0288,-0.0269,-0.0128,-0.0119,-0.0118,-0.0104,-0.0028,0.004,0.0041,0.0072,0.0071,0,0,0,-0.0515,-0.0547,-0.0455,-0.0427,-0.0347,-0.0279,-0.0257,-0.0125,-0.0092,-0.0102,-0.0026,0.0041,0.0042,0.0072,0.0072,-0.0006,0,0,0,-0.0525,-0.0571,-0.0464,-0.05,-0.0348,-0.0199,-0.0258,-0.0102,-0.0082,-0.0027,0.0041,0.0043,0.0073,0.0072,-0.0003,-0.0051,0,0,0,-0.0596,-0.0578,-0.0541,-0.0504,-0.0363,-0.0198,-0.0156,-0.0094,-0.0037,0.0039,0.0043,0.0073,0.0072,-0.0,-0.0046,-0.0057,0,0,0,-0.0676,-0.0586,-0.0543,-0.0439,-0.0366,-0.0227,-0.0155,-0.0053,0.0007,0.0041,0.0073,0.0072,0.0001,-0.0043,-0.0054,-0.0082,-0.0097,0,0,-0.06,-0.0579,-0.052,-0.0472,-0.0369,-0.0269,-0.0193,-0.0085,-0.0025,0.001,0.0014,-0.0004,-0.0046,-0.0056,-0.0134,-0.0147,0,0,0,-0.0521,-0.0494,-0.0453,-0.0384,-0.0288,-0.0253,-0.0131,-0.0093,-0.0032,0.0014,-0.0,-0.0025,-0.0029,-0.0039,-0.005,0.0153,0.0068,0.0068,0.0068,-0.0497,-0.0464,-0.042,-0.0384,-0.033,-0.0242,-0.0206,-0.0146,-0.0078,-0.0073,-0.0085,-0.0145,-0.0158,-0.0166,0.0043,-0.0073,-0.0073,-0.0073,-0.0074,-0.0458,-0.0452,-0.0462,-0.0412,-0.0408,-0.0365,-0.0296,-0.0246,-0.0203,-0.015,-0.0149,-0.0118,-0.0183,0.0045,-0.0079,-0.0078,-0.0077,-0.0077,-0.0076,-0.0483,-0.0488,-0.0475,-0.0488,-0.0499,-0.0453,-0.0475,-0.0391,-0.0289,-0.0291,-0.026,-0.0259,-0.0058,-0.0275,-0.0276,-0.0276,-0.0276,-0.0276,-0.0277,-0.0523,-0.052,-0.0561,-0.0568,-0.0599,-0.0617,-0.0573,-0.0542,-0.0442,-0.0357,-0.0356,-0.0058,-0.0206,-0.0198,-0.0281,-0.028,-0.028,-0.0279,-0.0279,-0.0547,-0.0566,-0.0634,-0.0677,-0.0762,-0.0845,-0.0782,-0.0711,-0.0627,-0.0575,-0.0168,-0.0374,-0.0347,-0.0337,-0.0331,-0.0444,-0.0444,-0.0444,-0.0444,-0.0585,-0.0593,-0.0725,-0.0829,-0.0927,-0.0961,-0.1035,-0.088,-0.0475,-0.0235,-0.0119,-0.0049,-0.0052,-0.0001,0.0001,0.0017,-0.0004,-0.0003,-0.0002,-0.0626,-0.0667,-0.0778,-0.0886,-0.1012,-0.1102,-0.1182,-0.0986,-0.0317,0.0041,0.0172,0.0153,0.0284,0.0264,0.0368,0.0354,0.0388,0,0]}],[{"header":{"parameterUnit":"m.s-1","parameterCategory":2,"la1":30.2992,"la2":30.254,"lo1":-89.0895,"lo2":-89.0443,"dy":0.0025,"dx":0.0025,"nx":19,"ny":19,"refTime":"2026-03-17T03:00:00:Z","depth":"2","parameterNumber":2,"parameterNumberName":"U-component_of_CURRENTS"},"data":[0,0,0,-0.193,-0.1927,-0.182,-0.182,-0.1832,-0.1832,0,0,0,0,0,0,0,0,0,0,0,-0.1987,-0.1986,-0.193,-0.1927,-0.182,-0.182,-0.1832,-0.1832,0,0,0,0,0,0,0,0,0,0,0,-0.1987,-0.1987,-0.1986,-0.1926,-0.182,-0.182,-0.1832,-0.1877,0,0,0,0,0,0,0,0,0,0,-0.1963,-0.1968,-0.1987,-0.1986,-0.1926,-0.182,-0.182,-0.1878,-0.1875,-0.192,0,-0.1907,0,-0.186,-0.1836,-0.1836,0,0,0,-0.1936,-0.1971,-0.1961,-0.1986,-0.1925,-0.1821,-0.1871,-0.1875,-0.1871,-0.1916,-0.1906,-0.1905,-0.1861,-0.1836,-0.1836,-0.1914,-0.1915,0,0,-0.1941,-0.1951,-0.1963,-0.1959,-0.1905,-0.1874,-0.1867,-0.1871,-0.1864,-0.1906,-0.1904,-0.1861,-0.1836,-0.1837,-0.1914,-0.1915,0,0,0,-0.1952,-0.1955,-0.1942,-0.196,-0.1923,-0.1871,-0.1863,-0.1863,-0.1864,-0.1903,-0.1861,-0.1837,-0.1837,-0.1913,-0.1914,-0.1916,0,0,0,-0.1956,-0.1961,-0.1945,-0.1947,-0.1922,-0.1864,-0.1855,-0.1864,-0.1862,-0.1861,-0.1837,-0.1838,-0.1913,-0.1914,-0.1915,-0.1927,0,0,0,-0.199,-0.1963,-0.1957,-0.1948,-0.1897,-0.1862,-0.1861,-0.1862,-0.1837,-0.1836,-0.1838,-0.1913,-0.1914,-0.1914,-0.1925,-0.1964,0,0,0,-0.1995,-0.193,-0.1958,-0.1889,-0.1898,-0.1865,-0.186,-0.1829,-0.1827,-0.1837,-0.1913,-0.1914,-0.1914,-0.1924,-0.1962,-0.1917,-0.192,0,0,-0.1906,-0.192,-0.1883,-0.1904,-0.1866,-0.188,-0.1869,-0.1859,-0.1867,-0.1923,-0.1923,-0.1916,-0.1925,-0.1964,-0.1983,-0.1984,0,0,0,-0.185,-0.1833,-0.1825,-0.1815,-0.1821,-0.1863,-0.1855,-0.1874,-0.1902,-0.1867,-0.1938,-0.1945,-0.1969,-0.1939,-0.194,-0.192,-0.1919,-0.1919,-0.1919,-0.1725,-0.1758,-0.1733,-0.1786,-0.1801,-0.1854,-0.1889,-0.193,-0.1925,-0.1946,-0.1963,-0.2018,-0.1985,-0.1986,-0.1976,-0.1977,-0.1977,-0.1977,-0.1977,-0.1633,-0.1629,-0.1716,-0.1705,-0.1807,-0.1833,-0.1936,-0.1951,-0.202,-0.1998,-0.2021,-0.1963,-0.1988,-0.1977,-0.1977,-0.1977,-0.1977,-0.1977,-0.1977,-0.1572,-0.1579,-0.1605,-0.1661,-0.1734,-0.1825,-0.1913,-0.198,-0.2026,-0.2057,-0.2036,-0.2035,-0.202,-0.2065,-0.2065,-0.2065,-0.2066,-0.2066,-0.2066,-0.1498,-0.1532,-0.154,-0.1613,-0.1652,-0.1745,-0.1899,-0.1968,-0.2039,-0.2053,-0.2052,-0.2048,-0.2045,-0.2027,-0.2069,-0.2069,-0.2068,-0.2068,-0.2068,-0.1399,-0.1435,-0.1442,-0.1474,-0.158,-0.1637,-0.1812,-0.1948,-0.2037,-0.2057,-0.206,-0.2058,-0.206,-0.2058,-0.2041,-0.2085,-0.2085,-0.2085,-0.2085,-0.1333,-0.1352,-0.136,-0.1394,-0.1471,-0.1584,-0.1662,-0.1784,-0.192,-0.1932,-0.1938,-0.1883,-0.1886,-0.1875,-0.1877,-0.1855,-0.1851,-0.185,-0.185,-0.1275,-0.1294,-0.127,-0.1322,-0.1406,-0.1503,-0.1526,-0.1563,-0.1675,-0.1837,-0.1864,-0.2076,-0.201,-0.2009,-0.2004,-0.2002,-0.1972,0,0]},{"header":{"parameterUnit":"m.s-1","parameterCategory":2,"la1":30.2992,"la2":30.254,"lo1":-89.0895,"lo2":-89.0443,"dy":0.0025,"dx":0.0025,"nx":19,"ny":19,"refTime":"2026-03-17T03:00:00:Z","depth":"2","parameterNumber":3,"parameterNumberName":"V-component_of_CURRENTS"},"data":[0,0,0,-0.0193,-0.0189,0.0015,0.0015,0.014,0.0141,0,0,0,0,0,0,0,0,0,0,0,-0.0278,-0.0277,-0.0194,-0.0189,0.0014,0.0015,0.014,0.0141,0,0,0,0,0,0,0,0,0,0,0,-0.0278,-0.0277,-0.0276,-0.0188,0.0014,0.0015,0.014,0.002,0,0,0,0,0,0,0,0,0,0,-0.0161,-0.0219,-0.0277,-0.0275,-0.0187,0.0014,0.0015,0.0015,0.0027,0.0009,0,0.0039,0,0.0097,0.0146,0.0146,0,0,0,-0.0189,-0.0228,-0.0171,-0.0275,-0.0185,0.0014,-0.0077,0.0023,0.0036,0.0024,0.0041,0.0048,0.0099,0.0146,0.0147,0.0165,0.0164,0,0,-0.02,-0.0243,-0.018,-0.0163,-0.0136,-0.0084,-0.0071,0.0032,0.0039,0.0042,0.0052,0.0101,0.0147,0.0147,0.0165,0.0165,0,0,0,-0.0232,-0.0251,-0.0194,-0.017,-0.012,-0.0078,-0.0063,0.0034,0.0054,0.0054,0.0102,0.0147,0.0148,0.0166,0.0165,0.0089,0,0,0,-0.0239,-0.0269,-0.0199,-0.0223,-0.0121,-0.002,-0.0064,0.0047,0.0062,0.0102,0.0147,0.0149,0.0166,0.0165,0.0092,0.0046,0,0,0,-0.0286,-0.0274,-0.0251,-0.0225,-0.0134,-0.002,0.0007,0.0052,0.009,0.0146,0.0149,0.0166,0.0165,0.0095,0.0051,0.0041,0,0,0,-0.0336,-0.0291,-0.0252,-0.0199,-0.0136,-0.0056,0.0008,0.0072,0.0114,0.0148,0.0166,0.0165,0.0096,0.0055,0.0043,0.002,0.0005,0,0,-0.0305,-0.0288,-0.0259,-0.0219,-0.017,-0.0083,-0.0047,0.0037,0.0091,0.0123,0.0126,0.0091,0.0052,0.0041,-0.0034,-0.0047,0,0,0,-0.0267,-0.0258,-0.0234,-0.0196,-0.0131,-0.0109,-0.0013,0.002,0.0068,0.0116,0.0094,0.0071,0.0067,0.0059,0.0048,0.0161,0.0161,0.0161,0.0161,-0.028,-0.0259,-0.0248,-0.0226,-0.0193,-0.0125,-0.0098,-0.0043,0.0019,0.0022,0.0011,-0.0049,-0.006,-0.0067,0.0022,0.0021,0.0021,0.0021,0.002,-0.0288,-0.0296,-0.0301,-0.0285,-0.0276,-0.0252,-0.0191,-0.0144,-0.0105,-0.0054,-0.0053,-0.0019,-0.0083,0.0015,0.0016,0.0016,0.0017,0.0018,0.0018,-0.0323,-0.0332,-0.0331,-0.0357,-0.0374,-0.0336,-0.036,-0.0283,-0.0188,-0.0191,-0.0159,-0.0157,-0.0089,-0.0176,-0.0176,-0.0176,-0.0177,-0.0177,-0.0177,-0.0362,-0.0369,-0.0414,-0.0434,-0.0467,-0.0489,-0.0452,-0.0424,-0.0332,-0.0252,-0.0251,-0.0114,-0.0108,-0.0099,-0.0181,-0.018,-0.018,-0.0179,-0.0179,-0.0398,-0.0409,-0.0485,-0.053,-0.0618,-0.0695,-0.0644,-0.0579,-0.0503,-0.0453,-0.0271,-0.0267,-0.024,-0.0231,-0.0224,-0.0333,-0.0333,-0.0333,-0.0333,-0.043,-0.044,-0.0565,-0.0668,-0.0765,-0.0801,-0.0863,-0.072,-0.0509,-0.0373,-0.0371,-0.0337,-0.033,-0.0305,-0.0294,-0.0287,-0.0412,-0.0412,-0.0412,-0.0465,-0.0505,-0.0607,-0.0716,-0.084,-0.0924,-0.0987,-0.08,-0.0468,-0.0414,-0.0366,-0.0342,-0.0285,-0.0278,-0.0228,-0.0215,-0.0199,0,0]}],[{"header":{"parameterUnit":"m.s-1","parameterCategory":2,"la1":30.2992,"la2":30.254,"lo1":-89.0895,"lo2":-89.0443,"dy":0.0025,"dx":0.0025,"nx":19,"ny":19,"refTime":"2026-03-17T03:00:00:Z","depth":"4","parameterNumber":2,"parameterNumberName":"U-component_of_CURRENTS"},"data":[0,0,0,-0.1183,-0.1189,-0.1423,-0.1424,-0.1554,-0.1555,0,0,0,0,0,0,0,0,0,0,0,-0.1091,-0.1092,-0.1183,-0.1189,-0.1423,-0.1424,-0.1554,-0.1555,0,0,0,0,0,0,0,0,0,0,0,-0.109,-0.1092,-0.1094,-0.119,-0.1423,-0.1424,-0.1554,-0.1416,0,0,0,0,0,0,0,0,0,0,-0.1208,-0.1161,-0.1092,-0.1094,-0.1192,-0.1423,-0.1424,-0.1411,-0.1425,-0.1404,0,-0.1453,0,-0.1515,-0.1561,-0.1562,0,0,0,-0.1176,-0.115,-0.1209,-0.1095,-0.1194,-0.1422,-0.1314,-0.142,-0.1435,-0.1421,-0.1455,-0.1462,-0.1518,-0.1562,-0.1562,-0.1668,-0.1668,0,0,-0.1163,-0.1133,-0.12,-0.1219,-0.1268,-0.1306,-0.1321,-0.1431,-0.145,-0.1456,-0.1466,-0.152,-0.1562,-0.1563,-0.1667,-0.1668,0,0,0,-0.1135,-0.1123,-0.1184,-0.1212,-0.1274,-0.1314,-0.1331,-0.1445,-0.1465,-0.1468,-0.1521,-0.1563,-0.1564,-0.1667,-0.1667,-0.1672,0,0,0,-0.1126,-0.1108,-0.1178,-0.1162,-0.1273,-0.1389,-0.1342,-0.1457,-0.1473,-0.1521,-0.1563,-0.1565,-0.1666,-0.1667,-0.1671,-0.1679,0,0,0,-0.1078,-0.1104,-0.1134,-0.1159,-0.1269,-0.139,-0.1417,-0.1462,-0.1504,-0.1562,-0.1565,-0.1666,-0.1667,-0.167,-0.1677,-0.1711,0,0,0,-0.1032,-0.11,-0.1134,-0.1224,-0.1267,-0.1391,-0.1417,-0.1509,-0.1559,-0.1563,-0.1666,-0.1667,-0.1669,-0.1676,-0.171,-0.1511,0,0,0,-0.1088,-0.1106,-0.1157,-0.1194,-0.13,-0.1357,-0.1464,-0.1537,-0.1566,-0.1614,-0.1619,-0.1671,-0.1677,-0.1711,-0.158,0,0,0,0,-0.1155,-0.1184,-0.1224,-0.13,-0.1386,-0.146,-0.154,-0.1573,-0.1645,-0.1608,-0.1693,-0.1697,-0.1718,-0.1599,-0.1673,-0.1673,-0.1672,-0.1672,-0.1672,-0.1178,-0.122,-0.1289,-0.135,-0.1424,-0.1531,-0.1592,-0.1651,-0.1664,-0.1698,-0.1716,-0.1768,-0.1643,-0.1732,-0.1732,-0.1732,-0.1732,-0.1732,-0.1732,-0.1217,-0.1238,-0.1303,-0.1378,-0.1452,-0.1534,-0.1644,-0.1675,-0.1758,-0.1749,-0.1769,-0.1631,-0.1733,-0.1733,-0.1733,-0.1733,-0.1732,-0.1732,-0.1732,-0.1181,-0.1191,-0.1253,-0.134,-0.1434,-0.1538,-0.162,-0.1706,-0.1766,-0.1798,-0.1686,-0.1786,-0.1769,-0.1812,-0.1812,-0.1812,-0.1813,-0.1813,-0.1813,-0.1101,-0.116,-0.1196,-0.1301,-0.1357,-0.1457,-0.1616,-0.1671,-0.1757,-0.1685,-0.1808,-0.1796,-0.1793,-0.1775,-0.1816,-0.1815,-0.1815,-0.1815,-0.1814,-0.1025,-0.1064,-0.1103,-0.1156,-0.1278,-0.134,-0.1518,-0.1586,-0.1634,-0.1616,-0.1628,-0.1636,-0.1622,-0.1624,-0.1599,-0.1589,-0.1587,-0.1585,0,-0.0958,-0.0984,-0.1021,-0.1068,-0.113,-0.1263,-0.1293,-0.1392,-0.1472,-0.1413,-0.1629,-0.164,-0.1645,-0.1626,-0.1624,-0.1592,0,0,0,-0.0903,-0.0926,-0.0921,-0.0988,-0.1048,-0.1146,-0.1292,-0.1278,-0.1454,-0.1452,-0.1524,-0.154,-0.1722,-0.1825,-0.1823,-0.182,-0.1792,0,0]},{"header":{"parameterUnit":"m.s-1","parameterCategory":2,"la1":30.2992,"la2":30.254,"lo1":-89.0895,"lo2":-89.0443,"dy":0.0025,"dx":0.0025,"nx":19,"ny":19,"refTime":"2026-03-17T03:00:00:Z","depth":"4","parameterNumber":3,"parameterNumberName":"V-component_of_CURRENTS"},"data":[0,0,0,0.0089,0.0088,0.0076,0.0076,0.0145,0.0145,0,0,0,0,0,0,0,0,0,0,0,0.0103,0.0102,0.0089,0.0088,0.0076,0.0076,0.0144,0.0145,0,0,0,0,0,0,0,0,0,0,0,0.0103,0.0102,0.0101,0.0088,0.0076,0.0076,0.0144,0.014,0,0,0,0,0,0,0,0,0,0,0.0144,0.0142,0.0102,0.0101,0.0087,0.0076,0.0076,0.0139,0.014,0.0165,0,0.0146,0,0.0131,0.0149,0.0149,0,0,0,0.0117,0.0141,0.0122,0.0101,0.0087,0.0076,0.009,0.0139,0.014,0.0167,0.0146,0.0148,0.0132,0.0149,0.015,0.0154,0.0154,0,0,0.0118,0.0123,0.012,0.0122,0.0063,0.009,0.0089,0.0139,0.0143,0.0146,0.0149,0.0133,0.015,0.015,0.0155,0.0154,0,0,0,0.01,0.0123,0.0102,0.012,0.0102,0.0089,0.0088,0.0142,0.0129,0.0149,0.0134,0.015,0.0151,0.0155,0.0155,0.0087,0,0,0,0.0102,0.011,0.0102,0.0109,0.01,0.0111,0.0089,0.0126,0.013,0.0134,0.015,0.0151,0.0156,0.0155,0.009,0.0049,0,0,0,0.0107,0.0112,0.01,0.0108,0.0087,0.0109,0.0101,0.0127,0.012,0.0149,0.0151,0.0156,0.0155,0.0092,0.0054,0.0043,0,0,0,0.0129,0.0075,0.01,0.005,0.0086,0.0054,0.0101,0.0102,0.0121,0.015,0.0156,0.0155,0.0093,0.0057,0.0045,0.001,0,0,0,0.0065,0.0068,0.0039,0.0059,0.0006,0.006,0.0028,0.0078,0.0118,0.0151,0.0151,0.0089,0.0054,0.0043,-0.0042,0,0,0,0,0.0022,-0.0002,-0.0011,-0.0031,-0.0033,-0.0031,0.0015,0.0041,0.0072,0.0118,0.009,0.007,0.0065,0.0052,0.015,0.015,0.0151,0.0151,0.0151,-0.0068,-0.0063,-0.0109,-0.0108,-0.0114,-0.0085,-0.0073,-0.0028,0.0025,0.0026,0.0016,-0.004,-0.0058,0.0024,0.0024,0.0023,0.0023,0.0023,0.0023,-0.016,-0.0181,-0.0171,-0.0211,-0.0196,-0.0203,-0.0159,-0.012,-0.0091,-0.0045,-0.0045,-0.0018,0.0016,0.0018,0.0019,0.0019,0.002,0.002,0.0021,-0.0198,-0.0209,-0.0226,-0.027,-0.0298,-0.0277,-0.0301,-0.0242,-0.0163,-0.0167,-0.0149,-0.0081,-0.0075,-0.0154,-0.0154,-0.0154,-0.0155,-0.0155,-0.0155,-0.0222,-0.0243,-0.0292,-0.0332,-0.0369,-0.0398,-0.038,-0.0358,-0.0276,-0.0239,-0.0181,-0.0099,-0.0093,-0.0085,-0.0159,-0.0158,-0.0158,-0.0157,-0.0157,-0.0257,-0.0265,-0.0344,-0.0391,-0.0484,-0.0507,-0.0495,-0.0439,-0.0415,-0.036,-0.0262,-0.0256,-0.0231,-0.0222,-0.0216,-0.0332,-0.0333,-0.0334,0,-0.0273,-0.0286,-0.0394,-0.0489,-0.0575,-0.0579,-0.0583,-0.0539,-0.0426,-0.0421,-0.0393,-0.0286,-0.028,-0.0252,-0.0245,-0.0241,0,0,0,-0.0292,-0.0326,-0.0408,-0.0511,-0.0618,-0.0603,-0.0583,-0.0562,-0.0442,-0.0424,-0.0353,-0.0348,-0.0268,-0.017,-0.0116,-0.0109,-0.0092,0,0]}]]